Location: Malanoce
(44.2500°N, 7.4667°E)
Time: 23:49:19
(UTC+00:00)

BREEZE-M DEB (TANK) - Pass Details

Date: 17 November 2025
Orbit: 446 x 13139 km, 46.0° (Epoch: 09 December)

Event Time Altitude Azimuth Distance (km) Brightness Sun altitude
Rises 17:40:13 0° 282° (WNW) 10,068 10.5 -17.6°
Reaches altitude 10° 17:49:56 10° 284° (WNW) 6,910 9.4 -19.3°
Maximum altitude 18:05:29 88° 197° (SSW) 1,211 4.4 -22.1°
Enters shadow 18:07:33 42° 110° (ESE) 1,333 4.3 -22.5°
